Probability
8 10 14 19 24 25 22 21 21 21 19 17 16 15 13 11 10 8 5 4 4 5 7 8 10 12 13 13 13 10 7 6 4 1 0 0 0 0 0 0 0 0 0
7 10 16 20 23 22 20 19 21 22 20 18 17 16 13 11 8 7 6 5 5 5 5 6 8 10 12 13 13 10 7 5 4 2 0 0 0 0 0 0 0 0 0
6 10 16 21 21 18 17 18 21 22 21 18 17 16 13 10 7 7 8 7 6 5 5 4 5 7 10 12 11 9 5 4 4 3 1 0 0 0 0 0 0 0 0
5 9 15 19 18 16 16 19 21 22 22 20 17 15 12 10 8 8 8 8 7 7 6 5 5 6 8 10 9 6 4 2 3 3 2 1 0 0 0 0 0 0 0
5 9 13 15 16 16 16 18 20 21 22 21 19 16 12 11 10 9 9 8 7 7 7 6 7 7 8 8 6 4 3 2 2 2 2 1 1 1 1 1 0 0 0
4 6 9 11 15 17 18 19 19 20 20 21 21 19 16 15 15 13 10 8 7 6 6 7 7 7 7 7 6 5 3 2 2 2 2 2 2 2 1 1 0 0 0
2 3 5 8 13 18 20 20 19 19 19 20 21 20 20 19 19 17 13 9 7 6 6 6 7 7 6 6 6 5 3 3 3 3 3 3 3 2 1 1 0 0 0
1 2 3 6 10 15 19 19 18 18 18 18 18 19 20 20 20 19 16 11 8 7 6 6 6 6 5 4 4 4 3 3 3 4 4 4 4 3 1 0 0 0 0
1 1 3 5 8 12 15 17 18 19 19 17 16 17 19 20 20 20 17 13 11 10 8 6 4 4 4 3 3 3 3 3 3 3 3 3 4 4 2 1 1 1 0
3 3 3 6 8 10 12 15 18 21 22 21 19 21 23 22 22 21 18 15 14 14 10 6 4 4 3 3 3 3 3 2 1 1 1 2 4 4 4 3 3 2 1
6 5 5 7 9 8 9 13 17 21 24 24 25 26 26 25 23 21 18 16 16 15 11 8 6 5 4 3 2 2 1 1 0 0 0 1 2 2 3 4 4 3 2
6 6 7 9 10 8 8 11 16 20 23 26 26 27 27 26 23 21 19 18 16 14 12 9 7 5 3 1 1 1 0 0 0 0 0 1 1 1 2 4 5 5 4
6 7 10 12 11 9 11 15 18 21 25 27 27 26 26 26 24 23 21 18 16 14 13 11 7 4 3 1 0 0 0 0 0 0 0 0 0 0 1 2 4 4 5
7 7 10 12 11 11 14 18 20 23 26 28 27 26 25 25 24 22 20 19 17 14 13 11 8 4 3 1 1 0 0 0 0 0 0 0 0 0 0 1 2 3 4
5 5 6 9 11 13 16 18 20 22 25 26 26 26 26 25 24 22 19 20 18 14 11 10 7 4 3 2 1 0 0 0 0 0 0 0 0 0 0 0 1 2 3
3 3 4 6 11 14 18 21 22 23 24 25 25 27 27 26 24 21 19 19 17 13 10 8 6 3 2 1 1 0 0 0 0 0 0 0 0 0 0 0 0 1 2
1 3 5 7 10 15 20 24 25 25 25 25 27 29 29 25 22 18 18 18 16 12 10 8 6 3 1 0 0 0 0 0 0 0 0 0 0 0 1 1 1 1 1
0 2 4 7 9 13 20 24 25 25 25 25 27 30 28 25 21 18 16 16 15 13 11 9 7 4 1 0 0 0 0 0 0 0 1 1 1 1 1 2 2 1 1
1 1 3 6 9 12 18 23 24 24 23 23 26 27 27 25 22 18 17 17 16 14 12 10 8 5 2 1 0 0 0 1 1 2 2 2 1 1 1 1 1 1 2
4 3 5 7 9 12 17 22 23 23 22 22 23 25 25 23 18 16 19 19 17 15 13 11 9 7 4 2 1 0 1 2 3 3 3 2 1 0 0 0 1 2 3
8 8 9 10 11 13 17 20 22 24 23 21 21 23 22 18 15 17 21 21 18 15 13 11 9 7 5 2 1 0 1 2 3 3 3 2 1 0 0 0 1 2 3
12 12 13 14 13 14 17 18 20 23 23 20 19 20 21 18 16 20 23 22 19 15 11 9 7 5 4 2 0 0 0 1 1 2 2 2 1 0 0 0 1 1 1
12 13 14 15 15 16 17 17 19 22 22 20 18 19 22 21 19 18 20 19 17 12 8 6 5 4 3 3 1 0 0 0 0 1 1 1 0 0 0 0 0 1 2
11 11 12 14 16 17 16 16 18 20 21 20 18 19 21 22 18 15 14 14 12 9 7 7 6 5 4 3 2 1 0 0 0 0 1 1 1 0 0 0 0 1 2
7 7 7 10 13 15 14 15 18 20 19 18 18 18 19 19 15 12 10 8 7 7 6 6 5 4 3 2 2 1 0 0 0 1 2 2 2 1 0 1 1 2 3
3 3 3 6 10 12 12 15 18 20 19 17 17 17 17 17 14 10 7 5 3 3 4 4 3 2 1 1 1 1 0 0 0 1 2 3 3 2 1 2 2 3 3
Wind_Speed
8 8 8 8 8 8 8 8 8 7 6 5 5 5 4 4 3 3 4 4 4 5 4 3 4 4 3 3 4 4 4 3 3 3 2 2 2 1 1 2 2 2 2
7 7 8 9 9 9 9 9 9 8 8 5 4 4 4 3 3 3 3 4 4 4 5 4 4 4 3 4 5 4 3 3 3 3 3 3 4 3 2 2 2 2 2
7 8 9 9 9 9 10 8 9 9 8 7 5 4 4 4 4 4 4 4 5 5 4 4 4 4 5 4 5 5 5 3 3 3 3 2 1 2 3 3 2 2 2
7 8 8 9 10 10 9 9 9 8 8 8 7 6 5 5 4 4 3 4 4 4 4 4 4 4 4 4 5 5 4 4 4 3 2 2 2 2 2 4 4 3 3
6 7 8 9 9 9 9 9 8 8 8 8 7 7 6 5 4 4 5 4 4 5 5 5 4 4 3 3 3 3 4 4 4 3 3 2 2 4 3 2 3 4 4
5 6 6 7 8 9 9 9 9 9 9 9 8 8 8 6 6 6 6 5 4 4 5 5 4 4 3 4 4 4 5 4 3 3 3 3 3 3 3 3 3 3 3
4 5 6 6 7 8 8 8 9 9 9 9 8 8 8 8 7 7 6 6 5 5 5 5 5 4 4 4 4 4 4 4 4 4 4 3 3 3 3 3 2 3 3
2 4 6 6 6 7 8 8 9 9 9 9 8 8 8 7 6 7 6 6 4 4 5 6 5 5 5 4 4 4 5 4 4 5 4 4 3 3 3 3 3 3 3
2 2 4 5 6 7 7 7 8 8 9 9 8 7 8 7 6 6 6 5 4 5 6 6 6 5 5 5 5 4 4 4 5 5 5 5 3 4 3 3 4 4 4
1 2 2 4 5 6 6 6 7 8 8 8 8 7 7 7 6 6 6 5 5 5 6 6 6 6 6 6 5 5 5 4 4 3 4 5 4 3 4 4 4 4 4
1 1 2 3 3 4 5 6 6 7 8 8 8 7 7 7 7 6 6 6 5 6 6 6 6 7 7 6 5 5 4 5 5 5 5 6 5 4 4 4 4 4 4
2 0 1 2 3 4 4 5 6 7 7 8 8 8 7 7 7 7 6 6 6 6 6 6 6 6 6 6 6 6 5 5 5 5 5 6 5 6 5 4 5 4 4
2 1 0 1 3 3 4 5 6 6 6 7 8 8 8 8 7 7 6 6 6 6 6 6 6 6 6 6 6 6 5 5 5 5 6 6 6 6 5 6 5 5 5
2 1 1 1 2 3 4 5 6 6 6 7 7 8 8 8 7 7 6 6 6 6 6 6 6 6 6 6 6 6 6 5 5 5 6 6 6 6 6 6 6 5 5
3 2 2 2 2 3 3 4 5 5 6 7 7 7 7 7 7 7 7 6 6 7 6 6 6 6 6 6 6 6 6 5 5 5 6 6 5 4 5 5 5 5 5
4 3 3 3 3 3 4 4 5 5 6 6 6 6 7 7 7 7 7 7 7 6 6 7 7 7 6 5 5 6 5 5 5 5 5 6 7 6 7 6 5 5 6
5 4 4 4 4 4 4 5 5 5 5 6 6 6 7 7 7 7 7 7 7 7 7 7 7 7 6 7 7 7 6 6 5 5 5 5 4 6 7 8 9 9 8
6 4 4 3 3 3 3 4 4 5 5 6 5 5 6 7 7 7 7 7 6 7 7 7 7 7 6 8 8 8 8 6 6 6 5 5 5 5 5 6 7 8 8
5 4 4 3 2 2 3 4 4 5 5 6 6 6 6 6 7 7 7 7 7 7 7 7 7 7 6 9 9 8 7 6 7 6 6 6 6 4 4 7 7 6 6
5 4 3 2 2 2 2 3 4 5 5 5 5 5 6 6 6 7 7 6 7 7 7 6 7 7 6 8 10 9 7 6 6 6 6 6 6 5 6 7 7 7 6
5 4 3 2 2 2 2 3 4 5 4 4 5 5 5 6 6 6 6 6 6 6 6 6 6 6 6 8 10 10 7 6 5 5 5 4 7 7 7 7 6 5 5
4 4 3 2 2 2 3 3 4 4 4 4 4 5 5 5 5 6 6 6 6 6 6 5 5 5 5 6 8 10 9 6 5 5 4 3 7 7 8 7 5 4 6
4 4 3 2 2 2 3 4 4 3 4 4 4 4 4 4 5 6 6 6 6 5 5 5 5 4 4 5 7 8 8 8 6 4 1 1 5 6 7 8 7 7 7
5 4 4 3 2 2 3 3 3 2 3 4 4 4 4 4 4 4 5 5 5 5 5 4 4 4 4 4 4 5 6 8 7 6 4 6 7 7 6 5 6 7 6
5 5 4 4 4 3 3 3 2 2 3 4 4 4 4 4 4 4 3 4 3 3 4 4 4 4 4 2 2 3 3 3 3 3 4 5 5 6 6 5 5 6 6
4 4 5 4 4 3 3 3 2 2 3 4 4 3 4 4 4 4 3 1 2 2 1 2 3 2 1 4 4 3 2 3 3 4 5 5 5 5 5 5 5 5 5
Wind_Direction
189 178 175 176 176 177 178 179 180 177 180 180 184 183 179 181 187 193 179 191 200 195 205 198 177 202 190 191 188 188 175 187 184 190 182 177 175 184 207 209 207 182 190
182 177 179 179 181 183 185 184 185 183 187 184 185 183 178 187 192 197 179 196 199 199 200 197 195 190 185 188 186 190 198 191 200 222 217 204 182 181 191 194 203 212 202
189 183 184 187 186 189 191 191 188 185 188 182 180 171 171 185 184 191 186 195 200 198 202 193 199 191 202 187 191 197 201 205 205 232 255 250 221 167 164 191 203 212 219
191 187 186 189 191 193 192 194 189 187 184 185 188 185 188 193 194 193 178 182 190 192 186 187 188 197 204 186 201 199 208 215 211 202 255 299 329 261 177 182 186 200 214
191 190 193 194 194 192 190 188 187 186 184 189 186 192 202 199 190 185 176 188 183 189 185 180 185 190 202 195 210 197 219 218 229 225 214 210 218 247 250 210 196 204 208
194 192 192 190 190 189 190 185 184 186 185 188 190 199 201 198 190 189 185 189 182 184 182 183 185 192 197 191 202 207 212 224 228 240 236 230 227 228 236 228 216 216 206
197 193 191 187 188 186 187 188 184 187 187 188 192 197 201 198 195 196 193 196 186 182 181 186 187 196 197 199 202 209 218 214 216 229 233 239 243 250 250 244 232 230 206
190 198 193 190 187 185 185 189 188 188 189 191 194 194 198 202 200 201 200 195 196 187 177 187 189 194 195 200 204 212 209 208 217 228 233 238 233 236 238 242 240 238 227
166 186 188 191 190 188 187 192 191 189 190 192 194 195 198 205 198 190 200 196 193 187 182 189 190 191 194 198 207 215 213 207 217 219 218 233 228 229 234 239 244 257 259
122 163 182 191 194 193 187 190 192 193 192 191 194 192 196 200 196 194 192 193 195 191 186 191 190 194 198 198 208 211 206 209 217 230 235 238 233 225 225 232 237 248 264
6 142 180 181 190 190 187 186 191 193 193 192 192 191 191 191 193 195 192 190 192 190 191 195 194 197 200 197 204 215 199 210 216 226 226 233 242 235 226 224 227 233 243
322 302 185 176 183 185 185 186 190 191 193 190 188 189 191 189 192 194 194 190 192 195 194 198 199 201 199 198 204 210 206 213 220 225 228 231 229 231 240 234 233 232 242
316 317 167 183 191 194 192 187 189 192 190 186 189 190 195 195 195 194 194 194 193 197 197 198 200 204 201 201 206 212 216 220 226 228 228 230 230 232 232 235 234 232 230
316 321 305 250 221 208 198 195 193 190 186 185 189 193 197 198 196 193 192 194 196 198 200 203 203 205 205 205 208 214 219 224 228 229 231 233 231 231 231 230 232 237 241
304 290 280 276 248 224 210 206 197 191 190 188 192 196 197 195 193 194 195 196 199 203 203 206 206 207 208 206 210 219 217 218 226 230 233 235 235 244 246 250 235 230 237
311 305 288 270 254 236 220 211 203 197 195 197 197 197 196 195 196 195 194 195 200 206 206 210 211 212 210 169 193 229 224 222 226 229 233 229 217 215 220 240 252 254 247
319 306 291 270 260 247 226 214 206 201 202 202 200 197 199 201 199 198 197 199 202 206 210 213 215 216 202 174 191 215 235 231 230 230 236 243 222 219 220 211 218 228 236
322 313 301 281 260 246 231 221 207 200 203 205 202 199 201 204 199 201 202 203 205 209 213 217 218 220 204 178 191 206 226 232 229 229 233 241 238 230 234 229 223 227 218
323 315 303 289 265 239 222 220 210 204 206 208 205 202 203 206 203 203 204 205 207 211 214 214 216 219 205 182 189 204 223 222 224 227 227 236 238 211 222 234 231 232 232
331 325 312 294 269 257 232 222 222 216 217 217 212 206 204 203 206 206 203 201 206 212 216 214 217 219 214 183 187 204 228 223 223 220 220 221 235 203 207 229 231 231 233
333 330 314 284 269 254 237 233 231 232 233 227 217 206 206 206 207 205 201 200 205 209 216 216 216 216 213 187 188 203 230 231 229 229 224 207 185 199 212 230 237 242 252
337 332 319 299 278 257 239 240 242 243 242 230 218 207 205 210 198 196 199 201 202 202 207 210 216 210 199 194 190 198 221 250 241 245 245 189 171 199 214 225 229 226 240
339 331 319 315 304 279 259 251 250 244 231 218 210 203 196 203 198 193 193 194 199 210 207 205 208 206 193 173 177 194 214 229 241 251 280 197 192 202 213 223 216 218 232
335 330 321 314 306 288 277 270 264 248 222 214 208 196 189 189 189 193 196 200 199 206 210 211 211 203 200 195 180 191 199 207 223 233 201 194 204 217 225 209 212 228 240
332 326 317 307 301 299 291 280 267 242 226 218 213 203 195 186 189 194 204 209 209 220 222 218 216 212 214 179 155 225 225 228 226 232 219 215 204 209 214 217 219 225 227
322 315 312 312 310 302 294 291 281 245 230 222 213 212 206 192 195 189 188 151 210 140 204 280 272 248 164 139 153 184 214 221 204 226 227 225 225 224 227 228 223 224 233